Regional Weather Roundup
Issued by NWS State College, PA

Home | Current Version | Previous Version | Text Only | Print | Product List | Glossary On
Versions: 1 2 3 4 5 6 7 8 9 10 11 12 13 14 15 16 17 18 19 20 21 22 23 24 25 26 27 28 29 30 31 32 33 34 35 36 37 38 39 40 41 42 43 44 45 46 47 48 49 50
000
ASUS41 KCTP 281003
RWRCTP

REGIONAL WEATHER ROUNDUP
NATIONAL WEATHER SERVICE STATE COLLEGE PA
500 AM EST FRI NOV 28 2014

Note: "fair" indicates few or no clouds below 12,000 feet with no
significant weather and/or obstructions to visibility.

* = STATION THAT DOES NOT REPORT PRECIPITATION /E.G. RAIN...SNOW...ETC/
    THUNDER OR FOG.

PAZ002>004-007>009-013>016-020>023-029>032-281100-
WESTERN PENNSYLVANIA

CITY           SKY/WX    TMP DP  RH WIND       PRES   REMARKS
ERIE           CLOUDY    28  15  58 NW15G24   30.26R
MEADVILLE      LGT SNOW  24  18  77 NW8       30.21R
FRANKLIN*      CLOUDY    23  18  80 W7        30.22R WCI  15
NEW CASTLE     LGT SNOW  24  20  85 W7        30.28R FOG
BEAVER COUNTY  NOT AVBL
BUTLER*        MOCLDY    25  19  80 W5        30.26R
PITTSBURGH INT FLURRIES  26  24  92 NW9       30.26R
PITTSBURGH     LGT SNOW  26  20  77 NW6       30.24R
INDIANA*       CLOUDY    27  21  80 NW6G16    30.24R
LATROBE        LGT SNOW  27  23  86 NW13G18   30.26R
WASHINGTON CO* CLOUDY    27  21  80 W8        30.28R VSB 1
$$

PAZ004>006-010>012-017>019-024>028-033>037-041-042-045-046-049>053-281100-
CENTRAL PENNSYLVANIA

CITY           SKY/WX    TMP DP  RH WIND       PRES   REMARKS
BRADFORD       LGT SNOW  21  16  81 NW10      30.11R WCI  10
DUBOIS         CLOUDY    24  20  84 W8        30.15R
CLEARFIELD     CLOUDY    25  17  72 NW9       30.16R
JOHNSTOWN      LGT SNOW  23  19  85 NW18      30.13R FOG     WCI   9
ALTOONA        LGT SNOW  27  23  85 NW7       30.16R FOG
STATE COLLEGE  PTCLDY    28  18  68 NW8       30.16R
WILLIAMSPORT   PTCLDY    30  19  63 W8        30.15R
SELINSGROVE    PTCLDY    31  21  66 VRB3      30.16R
FT INDIANTOWN  CLEAR     31  22  69 SW7       30.15R
CAPITAL CITY   FAIR      32  21  64 W12G22    30.17R
HARRISBURG     FAIR      32  21  64 NW14G23   30.17R
YORK           CLEAR     30  20  66 W8        30.17R
$$

PAZ038>040-043-044-047-048-054-055-060>062-067>071-281100-
EASTERN PENNSYLVANIA

CITY           SKY/WX    TMP DP  RH WIND       PRES   REMARKS
SCRANTON       CLOUDY    27  24  89 W6        30.09R
MOUNT POCONO   CLOUDY    25  22  88 W8        30.01R
ALLENTOWN      CLEAR     24  20  84 SW6       30.11R
QUAKERTOWN*    SUNNY     28  25  86 CALM      30.12R
READING        FAIR      31  21  66 W5        30.13R
LANCASTER      CLEAR     28  21  75 W8        30.15R
COATESVILLE    SUNNY     28  23  80 NW13      30.13S
POTTSTOWN      CLEAR     28  22  78 W3        30.14R
BLUE BELL      CLEAR     32  28  86 CALM      30.12R
DOYLESTOWN     CLEAR     28  25  88 W6        30.11R
WILLOW GROVE   NOT AVBL
NORTH PHILA    PTCLDY    33  24  69 W8        30.15R
PHILADELPHIA   PTCLDY    34  24  67 W8        30.15R
$$


USA.gov is the U.S. government's official web portal to all federal, state and local government web resources and services.